This is the latest recevied weather packets stored in our database for station/object EA2AFZ-W. If no packets are shown the sender has not sent any weather packets the latest 10 day(s).
| Time | Temp. | Humidity | Pressure | Rain* | Wind** | Luminosity | Snow |
|---|---|---|---|---|---|---|---|
| 1777830344 | 15.56° C | 85% | 1011 hPa | 0 mm | - | - | - |
| 1777828540 | 16.67° C | 80% | 1011 hPa | 0 mm | - | - | - |
| 1777826739 | 18.33° C | 69% | 1011 hPa | 0 mm | - | - | - |
| 1777824937 | 18.89° C | 64% | 1011 hPa | 0 mm | - | - | - |
| 1777823135 | 18.89° C | 64% | 1011 hPa | 0 mm | - | - | - |
| 1777821332 | 18.89° C | 64% | 1011 hPa | 0 mm | - | - | - |
| 1777819530 | 18.89° C | 64% | 1011 hPa | 0 mm | - | - | - |
| 1777817727 | 18.33° C | 62% | 1011 hPa | 0 mm | - | - | - |
| 1777815926 | 18.33° C | 64% | 1011 hPa | 0 mm | - | - | - |
| 1777814123 | 20.56° C | 74% | 1011 hPa | 0 mm | - | - | - |
| 1777812321 | 18.33° C | 80% | 1011 hPa | 0 mm | - | - | - |
| 1777810519 | 17.78° C | 74% | 1012 hPa | 0 mm | - | - | - |
| 1777808718 | 17.78° C | 73% | 1012 hPa | 0 mm | - | - | - |
| 1777806915 | 18.33° C | 64% | 1012 hPa | 0 mm | - | - | - |
| 1777805112 | 18.33° C | 63% | 1012 hPa | 0 mm | - | - | - |
| 1777803311 | 18.33° C | 66% | 1013 hPa | 0 mm | - | - | - |
| 1777801508 | 18.33° C | 65% | 1013 hPa | 0 mm | - | - | - |
| 1777799705 | 16.11° C | 78% | 1013 hPa | 0 mm | - | - | - |
| 1777797904 | 16.11° C | 72% | 1013 hPa | 0 mm | - | - | - |
| 1777796148 | 15.56° C | 77% | 1013 hPa | 0 mm | - | - | - |
| 1777794345 | 12.78° C | 82% | 1013 hPa | 0 mm | - | - | - |
| 1777792541 | 12.22° C | 83% | 1013 hPa | 0 mm | - | - | - |
| 1777790739 | 12.22° C | 83% | 1013 hPa | 0 mm | - | - | - |
| 1777788937 | 12.22° C | 84% | 1013 hPa | 0 mm | - | - | - |
| 1777787134 | 12.78° C | 87% | 1013 hPa | 0 mm | - | - | - |
* Rain latest hour (hover to see other rain measurements)
** Current wind speed in m/s (hover to see current wind gust speed)